+ View the NASA Portal
+ Center for Near-Earth Object Studies
JPL Small-Body Database Browser
Search:
[
help
]
58067 (2269 T-1)
Classification:
Main-belt Asteroid
SPK-ID:
2058067
[
Ephemeris
|
Orbit Diagram
|
Orbital Elements
|
Mission Design
|
Physical Parameters
|
Discovery Circumstances
]
[ show orbit diagram ]
Orbital Elements at Epoch 2459200.5 (2020-Dec-17.0) TDB
Reference:
JPL 25
(heliocentric ecliptic J2000)
Element
Value
Uncertainty (1-sigma)
Units
e
.1248428227715761
3.2603e-08
a
2.329373954590734
8.4578e-09
au
q
2.038568334809038
7.7874e-08
au
i
6.26202865714022
4.3092e-06
deg
node
29.10154459293074
3.3065e-05
deg
peri
96.63244426678364
3.8203e-05
deg
M
40.80342954861286
1.8003e-05
deg
t
p
2459053.319112911142
(2020-Jul-22.81911291)
6.4812e-05
TDB
period
1298.54573348701
3.56
7.0724e-06
1.936e-08
d
yr
n
.2772332084394786
1.5099e-09
deg/d
Q
2.620179574372431
9.5137e-09
au
Orbit Determination Parameters
# obs. used (total)
921
data-arc span
18220 days (49.88 yr)
first obs. used
1971-03-24
last obs. used
2021-02-09
planetary ephem.
DE441
SB-pert. ephem.
SB441-N16
condition code
0
norm. resid. RMS
.53812
source
ORB
producer
Otto Matic
solution date
2021-Apr-13 11:27:50
Additional Information
Earth MOID
= 1.06486 au
Jupiter MOID
= 2.43995 au
T_jup
= 3.554
[ show covariance matrix ]
[
Ephemeris
|
Orbit Diagram
|
Orbital Elements
|
Mission Design
|
Physical Parameters
|
Discovery Circumstances
]
Physical Parameter Table
Parameter
Symbol
Value
Units
Sigma
Reference
Notes
absolute magnitude
H
15.66
n/a
E2021B10
diameter
diameter
1.832
km
0.211
urn:nasa:pds:neowise_diameters_albedos::2.0[mainbelt] (http://adsabs.harvard.edu/abs/2011ApJ...741...68M)
geometric albedo
albedo
0.210
0.055
urn:nasa:pds:neowise_diameters_albedos::2.0[mainbelt] (http://adsabs.harvard.edu/abs/2011ApJ...741...68M)
58067 (2269 T-1)
Discovered 1971-Mar-25 by van Houten, C. J., van Houten-Groeneveld, I., Gehrels, T. at Palomar
Reference:
20030318/Numbers.arc
Last Updated:
2004-04-19
Alternate Designations
2269 T-1
= 2001 SZ43
[
Ephemeris
|
Orbit Diagram
|
Orbital Elements
|
Mission Design
|
Physical Parameters
|
Discovery Circumstances
]
2021-Apr-20 07:15 UT
(server date/time)
Site Manager:
Ryan S. Park
Webmaster
:
Alan B. Chamberlin